Location: ??????
(42.0089°N, 44.3281°E)
Time: 17:11:44
(UTC+00:00)

USA 267 - Pass Details

Date: 29 May 2022
Orbit: 1101 x 1106 km, 123.0° (Epoch: 28 June)

Event Time Altitude Azimuth Distance (km) Brightness Sun altitude
Rises 18:31:54 0° 68° (ENE) 3,920 6.0 -17.7°
Reaches altitude 10° 18:34:52 10° 56° (NE) 2,963 5.5 -18.0°
Maximum altitude 18:39:51 24° 5° (N) 2,104 5.3 -18.5°
Drops below altitude 10° 18:44:50 10° 315° (NW) 2,966 6.7 -19.0°
Sets 18:47:48 0° 303° (WNW) 3,925 7.3 -19.3°
